loading
DOY 205 | 2024-07-23T02:05:47Z

TITAN 3A TRANSTAGE R/B, 1359

Orbit data source: Space-Track

TITAN 3A TRANSTAGE R/B, 1359 is space debris originally from a launch on Thu, 06 May 1965 UTC via a Titan IIIA launch vehicle from the Air Force Eastern Test Range (AFETR). Debris objects in space refer to the collection of defunct objects orbiting the Earth. Examples of debris include non-operational satellites, rocket bodies, and fragments generated from explosions, collisions, or faulty payload assembly.

Loading next visibility...
Loading greatness...
TITAN 3A TRANSTAGE R/B details
NORAD ID1359
COSPAR ID
1965-034A
Orbit
Active
Last TLE update16 hours ago
Origin
Flag of USUSAF SSD (US)
ManufacturerMartin Marietta
BusUnknown
MotorUnknown
Mass2,302 kg wet, 124 kg dry
Launch date (UTC)
1965-05-06 (59 years ago)
Launch vehicle
Titan IIIA
Launch site
Air Force Eastern Test Range (AFETR)
Object type
Payload
Rocket body
Debris
Radar Cross Section15 m², Large (>1 m²)
Predictive object data (real-time)
Latitude32.21345°
Longitude-160.56485°
Altitude2,805.223 km
Speed6.747 km/s
Apparent Right ascension21h 43m 41s
Apparent Declination6° 46' 02"
Sunlit
Object is in daylight
Predictive observer data (real-time)
Local Sidereal Time15:10:33
Azimuth79.499° E
Elevation-1.953°
Doppler factor1
Orbital elements
Apogee3,744.218 km
Perigee2,786.429 km
Semi-major axis9,643.46 km
Eccentricity0.04966
Inclination32.1156°
RAAN200.5442°
Arg. of periapsis68.563°
True anomaly291.48471°
Mean anomaly296.7067°
Mean motion2.29189 °/min
BSTAR-0.0034961
Period157.08 mins
Definitive object data (Epoch: 2024-07-22T09:49:05.218Z)
Latitude-0°
Longitude112.63019°
Altitude3,066.136 km
Speed6.564 km/s
True Right ascension13h 22m 10s
True Declination0° 00' 00"
Sunlit
Object was in daylight at TLE epoch
TLE from 16 hours ago
0 TITAN 3A TRANSTAGE R/B
1 01359U 65034A   24204.40908818 -.00000011  00000-0 -34961-2 0  9995
2 01359  32.1156 200.5442 0496600  68.5630 296.7067  9.17132966984864
Epoch: 2024-07-22T09:49Z
No data available
Other satellites on launch #34 in the year 1965 (1965-05-06 UTC)

TITAN 3A TRANSTAGE R/B Visibility forecast

Observer location: 39.9160978°, -105.1181434

TITAN 3A TRANSTAGE R/B is not visible in the next 10 days
Span
Click to sort rows by Start time (UTC) header in descending order
Start Az.
Max El. time (UTC)
Max El. Az.
Max El.
End time (UTC)
End Az.